Kingsville NAS, TX

5:10 AM CDT on March 28, 2017 (GMT -0500)
Kingsville Naval Air Station

Weather History for KNQI - October, 2013

Change the Weather History Date:

Friday, October 11, 2013

  Actual Average Record
Temperature  
Mean Temperature 85 °F -  
Max Temperature 95 °F 81 °F 95 °F (2013)
Min Temperature 77 °F 63 °F 55 °F (2000)
Cooling Degree Days 20    
Growing Degree Days 35 (Base 50)    
Moisture  
Dew Point 76 °F    
Average Humidity 81    
Maximum Humidity 94    
Minimum Humidity 59    
Precipitation  
Precipitation 0.00 in - - ()
Sea Level Pressure  
Sea Level Pressure 29.85 in    
Wind  
Wind Speed 10 mph (SE)    
Max Wind Speed 17 mph    
Max Gust Speed 24 mph    
Visibility 10 miles    
Events      
Averages and records for this station are not official NWS values.
T = Trace of Precipitation, MM = Missing Value Source: NWS Daily Summary

Daily Weather History Graph

Daily Weather History Graph

Search for Another Location

Airport or City:

Trip Planner

Search our weather history database for the weather conditions in past years. The results will help you decide how hot, cold, wet, or windy it might be!

Date:

Astronomy

Oct. 11, 2013 Rise Set
Actual Time 7:29 AM CDT 7:06 PM CDT
Civil Twilight 7:05 AM CDT 7:29 PM CDT
Nautical Twilight 6:38 AM CDT 7:56 PM CDT
Astronomical Twilight 6:11 AM CDT 8:23 PM CDT
Moon 1:56 PM CDT (10/11) 12:04 AM CDT (10/11)
Length of Visible Light 12h 23m
Length of Day
11h 36m
Waxing Crescent, 47% of the Moon is Illuminated
Oct 11
Waxing Crescent
Oct 11
First Quarter
Oct 18
Full
Oct 26
Last Quarter
Nov 3
New

Hourly Weather History & Observations

Time (CDT) Temp. Heat Index Dew Point Humidity Pressure Visibility Wind Dir Wind Speed Gust Speed Precip Events Conditions
12:56 AM 78.1 °F - 73.0 °F 84% 29.88 in 10.0 mi SE 11.5 mph - N/A   Clear
1:56 AM 78.1 °F - 73.0 °F 84% 29.87 in 10.0 mi SE 6.9 mph - N/A   Partly Cloudy
2:21 AM 79.0 °F - 73.9 °F 84% 29.88 in 10.0 mi SE 6.9 mph - N/A   Mostly Cloudy
2:56 AM 79.0 °F - 73.9 °F 84% 29.86 in 10.0 mi SE 8.1 mph - N/A   Overcast
3:30 AM 78.1 °F - 73.9 °F 87% 29.86 in 10.0 mi ESE 8.1 mph - N/A   Mostly Cloudy
3:56 AM 78.1 °F - 75.0 °F 90% 29.85 in 10.0 mi SSE 5.8 mph - N/A   Mostly Cloudy
4:56 AM 78.1 °F - 75.0 °F 90% 29.84 in 10.0 mi SE 8.1 mph - N/A   Scattered Clouds
5:56 AM 78.1 °F - 75.0 °F 90% 29.85 in 10.0 mi SE 8.1 mph - N/A   Partly Cloudy
6:56 AM 77.0 °F - 75.0 °F 94% 29.86 in 10.0 mi SE 5.8 mph - N/A   Partly Cloudy
7:06 AM 77.0 °F - 75.0 °F 94% 29.87 in 10.0 mi SE 4.6 mph - N/A   Mostly Cloudy
7:56 AM 77.0 °F - 75.0 °F 94% 29.87 in 10.0 mi ESE 3.5 mph - N/A   Mostly Cloudy
8:56 AM 80.1 °F 85.8 °F 77.0 °F 90% 29.88 in 10.0 mi ESE 5.8 mph - N/A   Mostly Cloudy
9:56 AM 84.0 °F 94.8 °F 78.1 °F 82% 29.89 in 10.0 mi SE 9.2 mph - N/A   Mostly Cloudy
10:56 AM 88.0 °F 101.3 °F 78.1 °F 72% 29.89 in 10.0 mi SSE 13.8 mph - N/A   Scattered Clouds
11:56 AM 93.0 °F 106.7 °F 77.0 °F 59% 29.88 in 10.0 mi SSE 11.5 mph - N/A   Mostly Cloudy
12:56 PM 90.0 °F 102.5 °F 77.0 °F 65% 29.86 in 10.0 mi SSE 12.7 mph - N/A   Mostly Cloudy
1:56 PM 91.9 °F 107.3 °F 78.1 °F 64% 29.83 in 10.0 mi SE 16.1 mph - N/A   Mostly Cloudy
2:56 PM 93.0 °F 108.9 °F 78.1 °F 62% 29.81 in 10.0 mi SE 15.0 mph 20.7 mph N/A   Mostly Cloudy
3:56 PM 91.9 °F 107.3 °F 78.1 °F 64% 29.80 in 10.0 mi ESE 16.1 mph - N/A   Mostly Cloudy
4:56 PM 90.0 °F 104.5 °F 78.1 °F 68% 29.79 in 10.0 mi SE 17.3 mph - N/A   Mostly Cloudy
5:56 PM 87.1 °F 98.8 °F 77.0 °F 72% 29.80 in 10.0 mi SE 15.0 mph 24.2 mph N/A   Mostly Cloudy
6:56 PM 84.0 °F 93.7 °F 77.0 °F 79% 29.81 in 10.0 mi SE 13.8 mph - N/A   Mostly Cloudy
7:56 PM 82.9 °F 91.8 °F 77.0 °F 82% 29.83 in 10.0 mi SE 13.8 mph 19.6 mph N/A   Mostly Cloudy
8:56 PM 82.0 °F 90.2 °F 77.0 °F 85% 29.84 in 10.0 mi SE 12.7 mph - N/A   Mostly Cloudy
9:56 PM 82.0 °F 91.0 °F 78.1 °F 88% 29.85 in 10.0 mi SE 11.5 mph - N/A   Clear
10:56 PM 81.0 °F 87.9 °F 77.0 °F 88% 29.86 in 10.0 mi SSE 11.5 mph - N/A   Clear
11:56 PM 81.0 °F 87.9 °F 77.0 °F 88% 29.87 in 10.0 mi SSE 11.5 mph - N/A   Clear